Location: Artiguedieu
(43.5000°N, 0.5454°E)
Time: 11:45:39
(UTC+00:00)

CZ-4C R/B - Pass Details

Date: 06 December 2020
Orbit: 619 x 1382 km, 63.4° (Epoch: 27 January)

Event Time Altitude Azimuth Distance (km) Brightness Sun altitude
Exits shadow 03:47:07 19° 30° (NNE) 1,948 4.3 -37.1°
Drops below altitude 10° 03:48:48 10° 33° (NNE) 2,582 5.1 -36.8°
Sets 03:51:37 0° 36° (NE) 3,656 6.0 -36.3°
